カタログに戻る

STARLINK-5748

運用中通信VLEO
NORAD 55604·PAYLOAD·🇺🇸 United States

打ち上げ Feb 12, 2023 から Cape Canaveral Space Force Station

Loading…

次のパス (今後24時間)

TLE

最新Source: CelesTrak SupGP

元期: Sep 15, 2026, 01:56 UTC

1 55604C 23020AM  26258.08104167  .00008687  00000+0  31467-3 0  2587
2 55604  43.0024 349.8233 0002273 270.0275 158.4724 15.27570020    15

AllMySatでSTARLINK-5748をリアルタイム追跡

Download on the App Store